When you browse on this site, cookies collect data to enhance your experience and personalize the content and advertising you see.
Visit our Privacy Policy to learn more. By continuing to use the site, you agree to this use of cookies and data.
  • In Romania
  • List of Countries
  • For 7 days
  • Water Temperature
  • Satellite Maps
  • Weather Map
  • Weather Widgets
  • user-avatar
    Login

    Hourly Weather Zolkiewka

    Today, 26 May, Sunday

    Time Temperature Precipitation Wind Pressure Humidity
    00:00 +10°C° 0 mm 2 mps 739 mmHg 92%
    01:00 +10°C° 0 mm 1 mps 739 mmHg 93%
    02:00 +10°C° 0 mm 1 mps 739 mmHg 93%
    03:00 +9°C° 0 mm 1 mps 739 mmHg 94%
    04:00 +9°C° 0 mm 1 mps 739 mmHg 94%
    05:00 +11°C° 0 mm 1 mps 739 mmHg 90%
    06:00 +13°C° 0 mm 1 mps 739 mmHg 86%
    07:00 +14°C° 0 mm 2 mps 739 mmHg 82%
    08:00 +16°C° 0 mm 2 mps 739 mmHg 74%
    09:00 +17°C° 0 mm 2 mps 739 mmHg 67%
    10:00 +19°C° 0 mm 3 mps 739 mmHg 59%
    11:00 +20°C° 0 mm 3 mps 738 mmHg 57%
    12:00 +21°C° 0 mm 3 mps 738 mmHg 55%
    13:00 +21°C° 0 mm 4 mps 738 mmHg 53%
    14:00 +22°C° 0 mm 4 mps 738 mmHg 54%
    15:00 +22°C° 0 mm 3 mps 737 mmHg 56%
    16:00 +22°C° 0 mm 3 mps 737 mmHg 57%
    17:00 +21°C° 0 mm 3 mps 737 mmHg 64%
    18:00 +19°C° 0 mm 2 mps 737 mmHg 70%
    19:00 +19°C° 0 mm 1 mps 736 mmHg 76%
    20:00 +18°C° 0 mm 1 mps 736 mmHg 79%
    21:00 +16°C° 0 mm 2 mps 736 mmHg 82%
    22:00 +14°C° 0 mm 2 mps 737 mmHg 85%
    23:00 +14°C° 0 mm 2 mps 736 mmHg 86%

    Tomorrow, 27 May, Monday

    Time Temperature Precipitation Wind Pressure Humidity
    00:00 +14°C° 0 mm 2 mps 736 mmHg 87%
    01:00 +12°C° 0 mm 3 mps 736 mmHg 88%
    02:00 +12°C° 0 mm 3 mps 736 mmHg 88%
    03:00 +12°C° 0 mm 3 mps 735 mmHg 89%
    04:00 +12°C° 0 mm 3 mps 735 mmHg 90%
    05:00 +14°C° 0 mm 3 mps 735 mmHg 85%
    06:00 +16°C° 0 mm 3 mps 735 mmHg 79%
    07:00 +18°C° 0 mm 4 mps 735 mmHg 74%
    08:00 +19°C° 0 mm 4 mps 735 mmHg 67%
    09:00 +21°C° 0 mm 4 mps 735 mmHg 60%
    10:00 +22°C° 0 mm 4 mps 735 mmHg 53%
    11:00 +23°C° 0 mm 4 mps 735 mmHg 51%
    12:00 +24°C° 0 mm 3 mps 735 mmHg 49%
    13:00 +25°C° 0 mm 3 mps 735 mmHg 47%
    14:00 +25°C° 0 mm 3 mps 735 mmHg 48%
    15:00 +25°C° 0 mm 3 mps 734 mmHg 50%
    16:00 +25°C° 0 mm 2 mps 734 mmHg 51%
    17:00 +23°C° 0.1 mm 2 mps 734 mmHg 62%
    18:00 +20°C° 0.1 mm 2 mps 734 mmHg 73%
    19:00 +18°C° 0.1 mm 2 mps 734 mmHg 84%
    20:00 +18°C° 0.1 mm 1 mps 734 mmHg 87%
    21:00 +18°C° 0.1 mm 1 mps 733 mmHg 89%
    22:00 +15°C° 0.1 mm 0 mps 733 mmHg 92%
    23:00 +15°C° 1.2 mm 0 mps 733 mmHg 93%

    Day after tomorrow, 28 May, Tuesday

    Time Temperature Precipitation Wind Pressure Humidity
    00:00 +15°C° 1.2 mm 0 mps 733 mmHg 94%
    01:00 +14°C° 1.2 mm 0 mps 732 mmHg 96%
    02:00 +14°C° 2.7 mm 0 mps 732 mmHg 96%
    03:00 +14°C° 2.7 mm 0 mps 732 mmHg 96%
    04:00 +15°C° 2.7 mm 1 mps 731 mmHg 96%
    05:00 +15°C° 2 mm 1 mps 731 mmHg 96%
    06:00 +15°C° 2 mm 1 mps 731 mmHg 97%
    07:00 +15°C° 2 mm 1 mps 731 mmHg 97%
    08:00 +16°C° 1.4 mm 2 mps 731 mmHg 95%
    09:00 +16°C° 1.4 mm 2 mps 731 mmHg 94%
    10:00 +16°C° 1.4 mm 2 mps 731 mmHg 92%
    11:00 +14°C° 0.4 mm 3 mps 731 mmHg 93%
    12:00 +13°C° 0.4 mm 4 mps 731 mmHg 95%
    13:00 +12°C° 0.4 mm 5 mps 731 mmHg 96%
    14:00 +11°C° 0.7 mm 6 mps 731 mmHg 96%
    15:00 +10°C° 0.7 mm 6 mps 731 mmHg 96%
    16:00 +10°C° 0.7 mm 7 mps 731 mmHg 95%
    17:00 +10°C° 0.5 mm 6 mps 731 mmHg 95%
    18:00 +9°C° 0.5 mm 5 mps 732 mmHg 95%
    19:00 +10°C° 0.5 mm 4 mps 732 mmHg 95%
    20:00 +10°C° 0 mm 4 mps 732 mmHg 95%
    21:00 +8°C° 0 mm 4 mps 733 mmHg 95%
    22:00 +9°C° 0 mm 3 mps 733 mmHg 95%
    23:00 +9°C° 0 mm 3 mps 733 mmHg 95%

    29 May, Wednesday

    Time Temperature Precipitation Wind Pressure Humidity
    00:00 +8°C° 0 mm 3 mps 734 mmHg 95%
    01:00 +8°C° 0 mm 3 mps 734 mmHg 95%
    02:00 +7°C° 0 mm 2 mps 734 mmHg 95%
    03:00 +7°C° 0 mm 2 mps 734 mmHg 95%
    04:00 +7°C° 0 mm 2 mps 735 mmHg 95%
    05:00 +8°C° 0 mm 2 mps 735 mmHg 92%
    06:00 +9°C° 0 mm 2 mps 735 mmHg 88%
    07:00 +12°C° 0 mm 2 mps 736 mmHg 85%
    08:00 +13°C° 0 mm 2 mps 736 mmHg 77%
    09:00 +14°C° 0 mm 2 mps 736 mmHg 69%
    10:00 +15°C° 0 mm 2 mps 736 mmHg 61%
    11:00 +16°C° 0 mm 3 mps 737 mmHg 59%
    12:00 +17°C° 0 mm 3 mps 737 mmHg 57%
    13:00 +18°C° 0 mm 3 mps 737 mmHg 55%
    14:00 +18°C° 0 mm 3 mps 737 mmHg 57%
    15:00 +18°C° 0 mm 3 mps 738 mmHg 59%
    16:00 +18°C° 0 mm 3 mps 738 mmHg 60%
    17:00 +16°C° 0.1 mm 3 mps 738 mmHg 68%
    18:00 +14°C° 0.1 mm 3 mps 739 mmHg 76%
    19:00 +14°C° 0.1 mm 2 mps 739 mmHg 84%
    20:00 +12°C° 0.2 mm 3 mps 740 mmHg 87%
    21:00 +12°C° 0.2 mm 3 mps 740 mmHg 90%
    22:00 +11°C° 0.2 mm 3 mps 741 mmHg 93%
    23:00 +10°C° 0 mm 3 mps 741 mmHg 92%

    30 May, Thursday

    Time Temperature Precipitation Wind Pressure Humidity
    00:00 +9°C° 0 mm 3 mps 742 mmHg 92%
    01:00 +8°C° 0 mm 3 mps 742 mmHg 92%
    02:00 +8°C° 0 mm 3 mps 743 mmHg 91%
    03:00 +7°C° 0 mm 2 mps 743 mmHg 90%
    04:00 +7°C° 0 mm 2 mps 743 mmHg 89%
    05:00 +8°C° 0.1 mm 2 mps 744 mmHg 85%
    06:00 +8°C° 0.1 mm 2 mps 744 mmHg 82%
    07:00 +9°C° 0.1 mm 2 mps 745 mmHg 79%
    08:00 +10°C° 0 mm 2 mps 745 mmHg 71%
    09:00 +12°C° 0 mm 2 mps 745 mmHg 64%
    10:00 +14°C° 0 mm 2 mps 746 mmHg 57%
    11:00 +15°C° 0 mm 2 mps 746 mmHg 55%
    12:00 +16°C° 0 mm 2 mps 746 mmHg 53%
    13:00 +17°C° 0 mm 2 mps 745 mmHg 51%
    14:00 +17°C° 0 mm 2 mps 745 mmHg 51%
    15:00 +17°C° 0 mm 2 mps 745 mmHg 52%
    16:00 +18°C° 0 mm 1 mps 745 mmHg 53%
    17:00 +16°C° 0 mm 1 mps 745 mmHg 58%
    18:00 +15°C° 0 mm 1 mps 745 mmHg 64%
    19:00 +13°C° 0 mm 0 mps 745 mmHg 69%
    20:00 +13°C° 0 mm 1 mps 745 mmHg 72%
    21:00 +12°C° 0 mm 2 mps 745 mmHg 74%
    22:00 +10°C° 0 mm 3 mps 745 mmHg 77%
    23:00 +10°C° 0 mm 3 mps 745 mmHg 78%

    31 May, Friday

    Time Temperature Precipitation Wind Pressure Humidity
    00:00 +10°C° 0 mm 3 mps 745 mmHg 79%
    01:00 +10°C° 0 mm 3 mps 745 mmHg 79%
    02:00 +10°C° 0 mm 3 mps 745 mmHg 78%
    03:00 +10°C° 0 mm 3 mps 745 mmHg 78%
    04:00 +10°C° 0 mm 3 mps 745 mmHg 77%
    05:00 +11°C° 0 mm 3 mps 745 mmHg 76%
    06:00 +13°C° 0 mm 3 mps 745 mmHg 75%
    07:00 +14°C° 0 mm 3 mps 745 mmHg 73%
    08:00 +14°C° 0.1 mm 3 mps 745 mmHg 76%
    09:00 +15°C° 0.1 mm 2 mps 745 mmHg 78%
    10:00 +15°C° 0.1 mm 2 mps 745 mmHg 80%
    11:00 +16°C° 0.1 mm 3 mps 745 mmHg 80%
    12:00 +16°C° 0.1 mm 3 mps 746 mmHg 80%
    13:00 +16°C° 0.1 mm 3 mps 746 mmHg 80%
    14:00 +16°C° 0.2 mm 3 mps 746 mmHg 81%
    15:00 +15°C° 0.2 mm 4 mps 746 mmHg 82%
    16:00 +15°C° 0.2 mm 4 mps 746 mmHg 83%
    17:00 +16°C° 0.1 mm 3 mps 746 mmHg 85%
    18:00 +15°C° 0.1 mm 2 mps 746 mmHg 87%
    19:00 +14°C° 0.1 mm 1 mps 746 mmHg 89%
    20:00 +14°C° 0 mm 1 mps 746 mmHg 90%
    21:00 +13°C° 0 mm 1 mps 747 mmHg 91%
    22:00 +11°C° 0 mm 0 mps 747 mmHg 92%
    23:00 +10°C° 0 mm 0 mps 747 mmHg 92%
    Show more